Regional Weather Roundup
Issued by NWS

Home | Current Version | Previous Version | Graphics & Text | Print | Product List | Glossary On
Versions: 1 2 3 4 5 6 7 8 9 10 11 12 13 14 15 16 17 18 19 20 21 22 23 24 25 26 27 28 29 30 31 32 33 34 35 36 37 38 39 40 41 42 43 44 45 46 47 48 49 50
000
ASUS43 KLSX 051357
RWRMO

WEATHER SUMMARY FOR MISSOURI
NATIONAL WEATHER SERVICE SPRINGFIELD MO
900 AM CDT THU MAY 05 2016

NOTE: "FAIR" INDICATES FEW OR NO CLOUDS BELOW 12,000 FEET WITH NO
       SIGNIFICANT WEATHER AND/OR OBSTRUCTIONS TO VISIBILITY.
       CURRENT SKY AND/OR WEATHER CONDITIONS ARE NOT AVAILABLE FOR
       CHILLICOTHE AND FARMINGTON.

MOZ001>031-035>038-043-044-053-054-051500-
...NORTHERN AND WESTERN MISSOURI...

CITY           SKY/WX    TMP DP  RH WIND       PRES   REMARKS
KANSAS CTY INT MOSUNNY   58  43  57 N7        30.08R
LEE`S SUMMIT   SUNNY     58  42  55 NE5       30.08R
ST JOSEPH      SUNNY     56  44  64 N5        30.09R
CHILLICOTHE      N/A     57  41  55 N3        30.08R

$$
MOZ066>068-077>081-088>096-101>105-051500-
...SOUTHWEST MISSOURI...

CITY           SKY/WX    TMP DP  RH WIND       PRES   REMARKS
SPRINGFIELD    SUNNY     58  42  55 NW10      30.05R
JOPLIN         SUNNY     57  46  66 NW5       30.08R
BRANSON        SUNNY     57  41  54 W6        30.06R

$$
MOZ032>034-039>042-045>050-055>058-069>072-051500-
...CENTRAL MISSOURI...

CITY           SKY/WX    TMP DP  RH WIND       PRES   REMARKS
COLUMBIA       NOT AVBL
JEFFERSON CITY SUNNY     55  39  54 N6        30.04R
SEDALIA        SUNNY     57  42  57 NE8       30.07R
WARRENSBURG    SUNNY     55  43  62 N3        30.07R

$$
MOZ051-052-059>065-051500-
...EAST CENTRAL MISSOURI...

CITY           SKY/WX    TMP DP  RH WIND       PRES   REMARKS
ST LOUIS INTL  SUNNY     53  37  54 N15       30.01R

$$
MOZ072>076-082>087-097>100-106>115-051500-
...SOUTH CENTRAL AND SOUTHEAST MISSOURI...

CITY           SKY/WX    TMP DP  RH WIND       PRES   REMARKS
CAPE GIRARDEAU SUNNY     55  41  59 N15       29.95R
POPLAR BLUFF   SUNNY     58  39  49 N15G24    29.96R
WEST PLAINS    SUNNY     58  38  47 NW8       30.03R

$$



USA.gov is the U.S. government's official web portal to all federal, state and local government web resources and services.